Regional Weather Roundup
Issued by NWS Sterling, VA

Home | Current Version | Previous Version | Graphics & Text | Print | Product List | Glossary On
Versions: 1 2 3 4 5 6 7 8 9 10 11 12 13 14 15 16 17 18 19 20 21 22 23 24 25 26 27
000
ASUS41 KLWX 130910
RWRLWX

REGIONAL WEATHER ROUNDUP
NATIONAL WEATHER SERVICE BALTIMORE MD/WASHINGTON DC
400 AM EST WED DEC 13 2017

Note: "FAIR" indicates few or no clouds below 12,000 feet
with no significant weather and/or obstructions to visibility.
 TC=TEMPERATURE CELSIUS

 * =Non NWS site. Station does not report precipitation (e.g. rain,
    snow, etc.), thunder, or fog.

DCZ001-MDZ009-015-VAZ040>042-051-053>054-131000-
WASHINGTON METRO

CITY           SKY/WX    TMP DP  RH WIND       PRES   REMARKS
WASHINGTON NAT PTCLDY    23   1  38 W16G26    29.79F WCI  10
DULLES         PTCLDY    20   1  43 NW21G28   29.79R WCI   4
ANDREWS AFB    PTCLDY    21  -1  37 W21G28    29.76R WCI   6
FT BELVOIR     CLEAR     22  -1  36 W16G28    29.80S WCI   9
QUANTICO       PTCLDY    23   0  36 N9        29.83S WCI  13
COLLEGE PARK*  PTCLDY    22  -1  36 W14G20    29.77S WCI   9
LEESBURG*      PTCLDY    23   5  46 NW13G22   29.79S WCI  11
MANASSAS*      PTCLDY    22   2  42 W16G31    29.81S WCI   8
GAITHERSBURG*  PTCLDY    19   2  47 W18G26    29.74S WCI   4

$$

MDZ006>007-011-014-131000-
BALTIMORE METRO

CITY           SKY/WX    TMP DP  RH WIND       PRES   REMARKS
BWI AIRPORT    PTCLDY    21   3  45 W17G28    29.74S WCI   7
MD SCIENCE CTR   N/A     23   2  40 MISG      29.67F
MARTIN STATE   CLEAR     23   7  50 W10       29.75F WCI  12
ANNAPOLIS      CLEAR     23   8  52 W13G26    29.75F WCI  11
FORT MEADE*    CLEAR     21   5  49 W10G18    29.78S WCI  10

$$

MDZ012-015-019>023-131000-
MARYLAND EASTERN SHORE

CITY           SKY/WX    TMP DP  RH WIND       PRES   REMARKS
OCEAN CITY     CLEAR     23   5  46 NW17G33   29.73R WCI   9
SALISBURY      MOCLDY    23   4  44 NW22G35   29.74R WCI   8
BAY BRIDGE AP* CLEAR     23   5  46 W14G28    29.76S WCI  11
CAMBRIDGE*     CLOUDY    23   1  39 NW21G31   29.76S WCI   8
EASTON*        PTCLDY    24   4  42 NW17G26   29.78S WCI  10

$$

MDZ017>025-131000-
SOUTHERN MARYLAND

CITY           SKY/WX    TMP DP  RH WIND       PRES   REMARKS
PATUXENT RIVER CLEAR     23   2  40 NW20G35   29.79R WCI   8
ST INIGOES     CLEAR     24   3  40 NW15G29   29.79R WCI  11
LEONARDTOWN*   CLEAR     23   1  39 W10G23    29.80S WCI  12

$$

MDZ003>005-131000-
NORTH CENTRAL MARYLAND

CITY           SKY/WX    TMP DP  RH WIND       PRES   REMARKS
FREDERICK*     PTCLDY    21   0  39 W17       29.79F WCI   7
HAGERSTOWN APT PTCLDY    20   1  43 W25G33    29.72S WCI   2
WESTMINSTER*   CLEAR     19   5  53 W18G33    29.68F WCI   4

$$

MDZ501>502-131000-
WESTERN MARYLAND

CITY           SKY/WX    TMP DP  RH WIND       PRES   REMARKS
OAKLAND*       CLOUDY     7   0  72 W10G25    29.59R WCI  -8
CUMBERLAND*    CLEAR     19   3  49 W9G23     29.82F WCI   9

$$

VAZ025>031-131000-
SHENANDOAH VALLEY

CITY           SKY/WX    TMP DP  RH WIND       PRES   REMARKS
WINCHESTER*    PTCLDY    19   0  42 NW24G31   29.77S WCI   2
FRONT ROYAL*   CLOUDY    21   1  42 MISG      29.77R
LURAY*         CLOUDY    23   9  54 SW7       29.77R
NEW MARKET*    CLOUDY    21   2  44 NW9G17    29.77R WCI  10
STAUNTON*      MOCLDY    19   7  60 W6G20     29.79S
WAYNESBORO*    PTCLDY    19   2  46 W7        29.74S

$$

WVZ021-048>050-054>055-131000-
EASTERN WEST VIRGINIA PANHANDLE

CITY           SKY/WX    TMP DP  RH WIND       PRES   REMARKS
MARTINSBURG    PTCLDY    19   0  43 W14G26    29.76S WCI   6
PETERSBURG*    CLOUDY    19   5  53 NW14G26   29.81R WCI   6

$$

VAZ036>039-050-131000-
CENTRAL FOOTHILLS

CITY           SKY/WX    TMP DP  RH WIND       PRES   REMARKS
CHARLOTTESVILL CLOUDY    26   2  35 NW15G23   29.79R WCI  14
CULPEPER*      FAIR      24   0  34 NW6       29.81S
ORANGE*        CLOUDY    25   7  46 CALM      29.80R
GORDONSVILLE*  CLOUDY    26   3  38 W10G17    29.79R WCI  16
WARRENTON*     MOCLDY    22  -3  33 NW5       29.79F

$$

VAZ055>057-131000-
NORTH AND CENTRAL PIEDMONT

CITY           SKY/WX    TMP DP  RH WIND       PRES   REMARKS
FREDERICKSBRG* PTCLDY    24   5  45 NW7       29.81S
STAFFORD*      PTCLDY    20   2  45 NW8       29.85S WCI  10

$$

NCZ024-NYZ072-PAZ021-071-VAZ022-071-131000-
OTHER REGIONAL OBSERVATIONS

CITY           SKY/WX    TMP DP  RH WIND       PRES   REMARKS
NEW YORK CITY  PTCLDY    22   3  44 NW13G28   29.52F WCI  10
PHILADELPHIA   PTCLDY    21   1  41 W13       29.66S WCI   9
PITTSBURGH     PTCLDY    16   7  67 W12G21    29.80R WCI   3
ROANOKE        CLOUDY    23   7  50 NW20G35   29.83R WCI   8
RICHMOND       PTCLDY    28   6  39 W5        29.81R
RALEIGH        CLEAR     24  10  55 SW5       29.89R

$$

ANZ530>537-131000-
MARINE OBSERVATIONS

STATION/POSITION TIME  TEMP    WIND        PRES
                       AIR SEA DIR/SP/G
                 (UTC) (F)     (DEG/KT/KT) (MB)
THOMAS PT LIGHT  0900   24 46  290/ 20/ 24   N/A
BALT KEY BRIDGE  0842   23     270/ 18/ 21 1007.0S
COVE POINT       0842   23     320/ 20/ 27 1008.9R
LEWISETTA        0842   26 43  330/ 18/ 24 1009.2R
SOLOMONS ISLAND  0842   24 46  310/ 16/ 23 1008.5R
PINEY POINT      0842          340/ 29/ 36   N/A

$$





USA.gov is the U.S. government's official web portal to all federal, state and local government web resources and services.